When you browse on this site, cookies collect data to enhance your experience and personalize the content and advertising you see.
Visit our Privacy Policy to learn more. By continuing to use the site, you agree to this use of cookies and data.
  • In Portugal
  • List of Countries
  • For 7 days
  • Water Temperature
  • Satellite Maps
  • Weather Map
  • Weather Widgets
  • user-avatar
    Login

    Hourly Weather Karak

    Today, 21 March, Thursday

    Time Temperature Precipitation Wind Pressure Humidity
    00:00 +14°C° 0 mm 1 mps 680 mmHg 58%
    01:00 +13°C° 0 mm 1 mps 680 mmHg 62%
    02:00 +13°C° 0 mm 1 mps 679 mmHg 67%
    03:00 +12°C° 0 mm 1 mps 679 mmHg 70%
    04:00 +12°C° 0 mm 1 mps 679 mmHg 72%
    05:00 +10°C° 0 mm 0 mps 679 mmHg 74%
    06:00 +12°C° 0 mm 1 mps 680 mmHg 70%
    07:00 +13°C° 0 mm 1 mps 680 mmHg 65%
    08:00 +13°C° 0 mm 0 mps 680 mmHg 58%
    09:00 +15°C° 0 mm 1 mps 681 mmHg 52%
    10:00 +18°C° 0 mm 1 mps 681 mmHg 45%
    11:00 +18°C° 0 mm 2 mps 681 mmHg 39%
    12:00 +18°C° 0 mm 3 mps 681 mmHg 37%
    13:00 +19°C° 0 mm 3 mps 681 mmHg 34%
    14:00 +19°C° 0 mm 4 mps 681 mmHg 32%
    15:00 +19°C° 0 mm 4 mps 680 mmHg 33%
    16:00 +18°C° 0 mm 4 mps 680 mmHg 35%
    17:00 +17°C° 0 mm 5 mps 680 mmHg 36%
    18:00 +17°C° 0 mm 4 mps 680 mmHg 42%
    19:00 +15°C° 0 mm 4 mps 680 mmHg 48%
    20:00 +14°C° 0 mm 3 mps 681 mmHg 54%
    21:00 +13°C° 0 mm 3 mps 681 mmHg 59%
    22:00 +14°C° 0 mm 2 mps 681 mmHg 64%
    23:00 +13°C° 0 mm 2 mps 681 mmHg 68%

    Tomorrow, 22 March, Friday

    Time Temperature Precipitation Wind Pressure Humidity
    00:00 +12°C° 0 mm 2 mps 681 mmHg 71%
    01:00 +12°C° 0 mm 2 mps 681 mmHg 73%
    02:00 +10°C° 0 mm 2 mps 680 mmHg 75%
    03:00 +11°C° 0 mm 1 mps 680 mmHg 75%
    04:00 +11°C° 0 mm 1 mps 680 mmHg 74%
    05:00 +10°C° 0 mm 1 mps 680 mmHg 74%
    06:00 +11°C° 0 mm 1 mps 681 mmHg 68%
    07:00 +12°C° 0 mm 1 mps 681 mmHg 61%
    08:00 +13°C° 0 mm 1 mps 682 mmHg 54%
    09:00 +14°C° 0 mm 2 mps 682 mmHg 48%
    10:00 +15°C° 0 mm 2 mps 682 mmHg 41%
    11:00 +16°C° 0 mm 2 mps 682 mmHg 34%
    12:00 +17°C° 0 mm 3 mps 682 mmHg 32%
    13:00 +18°C° 0 mm 3 mps 682 mmHg 30%
    14:00 +18°C° 0 mm 3 mps 681 mmHg 28%
    15:00 +18°C° 0 mm 3 mps 681 mmHg 29%
    16:00 +18°C° 0 mm 3 mps 681 mmHg 29%
    17:00 +17°C° 0 mm 3 mps 680 mmHg 30%
    18:00 +17°C° 0 mm 3 mps 681 mmHg 35%
    19:00 +16°C° 0 mm 2 mps 681 mmHg 40%
    20:00 +15°C° 0 mm 2 mps 681 mmHg 45%
    21:00 +14°C° 0 mm 2 mps 681 mmHg 50%
    22:00 +14°C° 0 mm 1 mps 681 mmHg 55%
    23:00 +13°C° 0 mm 1 mps 681 mmHg 60%

    Day after tomorrow, 23 March, Saturday

    Time Temperature Precipitation Wind Pressure Humidity
    00:00 +13°C° 0 mm 1 mps 680 mmHg 63%
    01:00 +12°C° 0 mm 1 mps 680 mmHg 66%
    02:00 +12°C° 0 mm 1 mps 679 mmHg 68%
    03:00 +12°C° 0 mm 1 mps 679 mmHg 69%
    04:00 +12°C° 0 mm 1 mps 679 mmHg 70%
    05:00 +11°C° 0 mm 1 mps 679 mmHg 70%
    06:00 +11°C° 0 mm 0 mps 679 mmHg 66%
    07:00 +11°C° 0 mm 0 mps 679 mmHg 61%
    08:00 +12°C° 0 mm 0 mps 680 mmHg 56%
    09:00 +13°C° 0 mm 0 mps 680 mmHg 48%
    10:00 +15°C° 0 mm 1 mps 679 mmHg 40%
    11:00 +18°C° 0 mm 1 mps 679 mmHg 33%
    12:00 +17°C° 0 mm 2 mps 679 mmHg 29%
    13:00 +18°C° 0 mm 3 mps 679 mmHg 26%
    14:00 +19°C° 0 mm 4 mps 678 mmHg 22%
    15:00 +19°C° 0 mm 4 mps 678 mmHg 23%
    16:00 +18°C° 0 mm 4 mps 678 mmHg 25%
    17:00 +17°C° 0 mm 4 mps 678 mmHg 27%
    18:00 +17°C° 0 mm 4 mps 678 mmHg 31%
    19:00 +15°C° 0 mm 4 mps 678 mmHg 36%
    20:00 +14°C° 0 mm 3 mps 678 mmHg 41%
    21:00 +14°C° 0 mm 3 mps 678 mmHg 45%
    22:00 +13°C° 0 mm 3 mps 678 mmHg 48%
    23:00 +12°C° 0 mm 3 mps 677 mmHg 52%

    24 March, Sunday

    Time Temperature Precipitation Wind Pressure Humidity
    00:00 +13°C° 0 mm 2 mps 677 mmHg 52%
    01:00 +13°C° 0 mm 2 mps 676 mmHg 53%
    02:00 +12°C° 0 mm 1 mps 676 mmHg 53%
    03:00 +12°C° 0 mm 1 mps 675 mmHg 53%
    04:00 +11°C° 0 mm 1 mps 675 mmHg 53%
    05:00 +11°C° 0 mm 1 mps 675 mmHg 53%
    06:00 +11°C° 0 mm 1 mps 675 mmHg 47%
    07:00 +12°C° 0 mm 1 mps 675 mmHg 41%
    08:00 +13°C° 0 mm 2 mps 676 mmHg 35%
    09:00 +13°C° 0 mm 3 mps 676 mmHg 31%
    10:00 +16°C° 0 mm 3 mps 676 mmHg 27%
    11:00 +17°C° 0 mm 4 mps 676 mmHg 23%
    12:00 +16°C° 0 mm 5 mps 675 mmHg 24%
    13:00 +15°C° 0 mm 6 mps 675 mmHg 25%
    14:00 +15°C° 0 mm 6 mps 674 mmHg 26%
    15:00 +14°C° 0.1 mm 6 mps 674 mmHg 31%
    16:00 +13°C° 0.1 mm 5 mps 674 mmHg 36%
    17:00 +13°C° 0.1 mm 4 mps 674 mmHg 41%
    18:00 +12°C° 0 mm 4 mps 674 mmHg 45%
    19:00 +11°C° 0 mm 4 mps 674 mmHg 49%
    20:00 +11°C° 0 mm 4 mps 674 mmHg 52%
    21:00 +10°C° 0 mm 4 mps 674 mmHg 54%
    22:00 +10°C° 0 mm 4 mps 673 mmHg 56%
    23:00 +8°C° 0 mm 4 mps 673 mmHg 57%

    25 March, Monday

    Time Temperature Precipitation Wind Pressure Humidity
    00:00 +8°C° 0 mm 4 mps 673 mmHg 59%
    01:00 +7°C° 0 mm 5 mps 672 mmHg 61%
    02:00 +7°C° 0 mm 5 mps 672 mmHg 62%
    03:00 +7°C° 0.1 mm 5 mps 672 mmHg 66%
    04:00 +6°C° 0.1 mm 5 mps 672 mmHg 69%
    05:00 +6°C° 0.1 mm 5 mps 672 mmHg 73%
    06:00 +5°C° 0.1 mm 6 mps 672 mmHg 71%
    07:00 +7°C° 0.1 mm 6 mps 673 mmHg 70%
    08:00 +7°C° 0.1 mm 6 mps 673 mmHg 68%
    09:00 +8°C° 0.1 mm 6 mps 673 mmHg 59%
    10:00 +9°C° 0.1 mm 7 mps 673 mmHg 50%
    11:00 +10°C° 0.1 mm 8 mps 674 mmHg 41%
    12:00 +10°C° 0 mm 9 mps 674 mmHg 38%
    13:00 +10°C° 0 mm 9 mps 674 mmHg 36%
    14:00 +9°C° 0 mm 10 mps 674 mmHg 33%
    15:00 +8°C° 0 mm 10 mps 674 mmHg 37%
    16:00 +7°C° 0 mm 10 mps 675 mmHg 40%
    17:00 +6°C° 0 mm 9 mps 675 mmHg 43%
    18:00 +6°C° 0 mm 8 mps 675 mmHg 46%
    19:00 +5°C° 0 mm 7 mps 676 mmHg 50%
    20:00 +4°C° 0 mm 6 mps 676 mmHg 53%
    21:00 +5°C° 0 mm 5 mps 676 mmHg 55%
    22:00 +5°C° 0 mm 5 mps 677 mmHg 57%
    23:00 +3°C° 0 mm 5 mps 677 mmHg 59%

    26 March, Tuesday

    Time Temperature Precipitation Wind Pressure Humidity
    00:00 +3°C° 0 mm 5 mps 677 mmHg 61%
    01:00 +3°C° 0 mm 5 mps 677 mmHg 63%
    02:00 +3°C° 0 mm 5 mps 677 mmHg 64%
    03:00 +3°C° 0 mm 4 mps 677 mmHg 66%
    04:00 +3°C° 0 mm 4 mps 677 mmHg 67%
    05:00 +3°C° 0 mm 3 mps 677 mmHg 68%
    06:00 +4°C° 0 mm 3 mps 677 mmHg 64%
    07:00 +5°C° 0 mm 3 mps 678 mmHg 59%
    08:00 +7°C° 0 mm 3 mps 678 mmHg 55%
    09:00 +7°C° 0 mm 4 mps 678 mmHg 51%
    10:00 +8°C° 0 mm 4 mps 678 mmHg 47%
    11:00 +11°C° 0 mm 4 mps 678 mmHg 43%
    12:00 +12°C° 0 mm 4 mps 678 mmHg 40%
    13:00 +12°C° 0 mm 5 mps 678 mmHg 37%
    14:00 +13°C° 0 mm 5 mps 678 mmHg 34%
    15:00 +13°C° 0 mm 5 mps 678 mmHg 35%
    16:00 +13°C° 0 mm 5 mps 678 mmHg 35%
    17:00 +13°C° 0 mm 4 mps 678 mmHg 36%
    18:00 +12°C° 0 mm 4 mps 679 mmHg 39%
    19:00 +11°C° 0 mm 3 mps 679 mmHg 43%
    20:00 +10°C° 0 mm 3 mps 679 mmHg 46%
    21:00 +10°C° 0 mm 2 mps 679 mmHg 47%
    22:00 +9°C° 0 mm 2 mps 679 mmHg 49%
    23:00 +10°C° 0 mm 1 mps 679 mmHg 50%
    Show more